Regional Weather Roundup
Issued by NWS Midland/Odessa, TX

Skip options and go directly to product.
Home | Oldest Version | Next Version | Current Version | All | Text Only | Save Text | Print | Product List | Glossary On

Skip product version selection by date and time.   
640
ASUS44 KMAF 011702
RWRMAF
MIDLAND AREA WEATHER ROUNDUP
NATIONAL WEATHER SERVICE MIDLAND TX
1200 PM CDT MON SEP 01 2014

...IN SOUTHWEST TEXAS AND SOUTHEAST NEW MEXICO...

CITY           SKY/WX    TMP DP  RH WIND       PRES   REMARKS
ALPINE         SUNNY     90  55  30 W10       30.13F
ANDREWS        FAIR      93  55  27 W10       29.95F
ARTESIA        NOT AVBL
BIG SPRING     SUNNY     88  65  47 S16G22    29.95F
CARLSBAD       SUNNY     94  46  19 NE5       29.96S
DRYDEN           N/A     92  65  40 S6        29.93F
FORT STOCKTON  SUNNY     97  51  21 NW9       29.95S
GUAD PASS      SUNNY     87  47  24 SW15      30.16R
HOBBS          SUNNY     91  48  22 W7        29.99S
MARFA          SUNNY     84  57  39 CALM      30.15S
MIDLAND AIRPK  NOT AVBL
MIDLAND INTL   SUNNY     91  64  40 S15       29.93F
ODESSA         SUNNY     90  62  39 SW13G21   29.95S
PECOS          SUNNY     93  55  27 SW3       29.92F
PRESIDIO       FAIR      92  57  31 SE3       29.97F
SEMINOLE       SUNNY     92  51  25 W7        29.97S
SNYDER         SUNNY     88  68  52 SW18      29.92F
WINK           SUNNY     96  52  22 W8        29.92S
$$
...OTHER STATIONS IN TEXAS...

CITY           SKY/WX    TMP DP  RH WIND       PRES   REMARKS
ABILENE        SUNNY     91  67  44 S21G28    29.91S
AMARILLO       SUNNY     80  59  48 N12       29.96S
AUSTIN         MOSUNNY   93  70  46 S20G30    29.93F
BROWNSVILLE    MOSUNNY   91  76  61 SE14      29.91F HX 103
CORPUS CHRISTI MOSUNNY   90  75  61 SE16      29.92F HX 100
DALLAS FTW     MOSUNNY   90  71  53 S20       29.91S
DEL RIO        SUNNY     89  71  55 SE13      29.90F
EL PASO        MOSUNNY   89  44  20 CALM      30.04R
HOUSTON INT    MOSUNNY   91  73  55 VRB6      29.96F HX 100
LUBBOCK        SUNNY     91  60  35 SW13      29.93F
SAN ANGELO     SUNNY     91  66  43 S23G30    29.92S
SAN ANTONIO    PTSUNNY   91  71  51 SE14      29.95F
WACO           PTSUNNY   90  71  53 S15       29.94S
WICHITA FALLS  NOT AVBL
$$
...OTHER LOCATIONS IN NEW MEXICO...

CITY           SKY/WX    TMP DP  RH WIND       PRES   REMARKS
ALAMAGORDO     SUNNY     88  39  18 N8        30.05F
ALBUQUERQUE    MOSUNNY   80  40  23 SW7       30.14F
CANNON AFB     SUNNY     82  54  37 NE9       30.02S
CLOVIS           N/A     82  54  36 N12       30.04S
HOLLOMAN AFB   SUNNY     89  40  17 N6        30.03F
ROSWELL        SUNNY     89  47  23 CALM      29.98S
RUIDOSO        SUNNY     75  39  27 NW14G20   30.26S
SANTA FE       SUNNY     79  38  22 SW9       30.17F
TRUTH OR CONSE SUNNY     85  40  20 CALM      30.11S
TUCUMCARI      SUNNY     82  55  39 VRB6      30.01S
$$

USA.gov is the U.S. government's official web portal to all federal, state and local government web resources and services.